Location: Guayaquil
(2.1667°S, 79.9000°W)
Time: 12:57:20
(UTC-05:00)

AAUSAT CUBESAT 2 - Visible Passes

Search period start: 21 January 2019 00:00
Search period end: 31 January 2019 00:00
Orbit: 576 x 591 km, 97.5° (Epoch: 20 January)

Date Brightness Start Highest point End Pass type
(mag) Time Alt. Az. Time Alt. Az. Time Alt. Az.
21 Jan ? 19:40:47 10° SSW 19:44:21 29° WSW 19:47:54 10° NW visible
22 Jan ? 19:47:05 10° SSW 19:50:23 24° WSW 19:53:41 10° NW visible
23 Jan ? 19:53:28 10° SSW 19:56:25 19° WSW 19:59:23 10° NW visible
24 Jan ? 19:59:57 10° SW 20:02:28 16° WSW 20:04:58 10° WNW visible
25 Jan ? 20:06:37 10° SW 20:08:29 13° WSW 20:10:21 10° WNW visible
26 Jan ? 20:13:56 10° WSW 20:14:31 10° WSW 20:15:07 10° W visible
30 Jan ? 18:59:30 10° SSE 19:03:34 66° ENE 19:07:38 10° N visible
